Weather Roundup
Issued by NWS

Home | Current Version | Previous Version | Graphics & Text | Print | Product List | Glossary Off
Versions: 1 2 3 4 5 6 7 8 9 10 11 12 13 14 15 16 17 18 19 20 21 22 23 24 25 26 27 28 29 30 31 32 33 34 35 36 37 38 39 40 41 42 43 44 45 46 47 48 49 50

221
NZUS93 KARX 220610
HRRWXR

CURRENT HOURLY OBSERVATIONS ACROSS
MUCH OF THE UPPER MISSISSIPPI VALLEY
NATIONAL WEATHER SERVICE LA CROSSE WI
100 AM CDT FRI MAY 22 2015


...SOUTHEAST MINNESOTA...


CITY           SKY/WX    TMP DP  RH WIND       PRES   REMARKS
ROCHESTER      CLEAR     50  32  50 NW8       30.11R
ROCHESTER/MAYO FAIR      56  33  42 NW5       30.10R
WINONA         CLEAR     50  41  71 CALM      30.08R
AUSTIN         CLEAR     48  39  71 CALM      30.11R
ALBERT LEA     CLEAR     48  39  71 CALM      30.12R
DODGE CENTER   CLEAR     54  32  43 NW3       30.11R
PRESTON        CLEAR     49  34  54 NW5       30.10R
OWATONNA       CLEAR     45  36  70 CALM      30.12R
FARIBAULT      CLEAR     45  41  87 CALM      30.11S
$$

...ELSEWHERE IN MINNESOTA...


CITY           SKY/WX    TMP DP  RH WIND       PRES   REMARKS
MINNEAPOLIS    CLEAR     54  39  57 NW7       30.10R
INTNL FALLS    CLEAR     35  33  92 CALM      30.11R
DULUTH         CLEAR     49  30  48 NW6       30.11R
RED WING       CLEAR     48  39  71 CALM      30.08S
REDWOOD FALLS  CLEAR     54  36  50 NW7       30.13R
MANKATO        CLEAR     54  32  43 W3        30.12R
WORTHINGTON    CLEAR     46  28  49 NW3       30.16R
FAIRMONT       CLEAR     52  30  43 NW6       30.13S
$$

...SOUTHWEST WISCONSIN...


CITY           SKY/WX    TMP DP  RH WIND       PRES   REMARKS
LA CROSSE      CLEAR     50  44  80 SE3       30.06R
PRAIRIE DU CHI CLEAR     48  40  74 CALM      30.07R
BOSCOBEL       CLEAR     45  40  82 CALM      30.07R
LONE ROCK      CLEAR     50  40  68 VRB3      30.06R
PLATTEVILLE    CLEAR     55  37  52 NW5       30.05R
FORT MC COY    CLEAR     40  39  94 CALM      30.08R
CAMP DOUGLAS   CLEAR     41  41  99 CALM      30.06R
VIROQUA        FAIR      54  37  53 CALM      30.07R
WIS DELLS      CLEAR     50  39  67 NE6       30.07R
$$

...ELSEWHERE IN WISCONSIN...


CITY           SKY/WX    TMP DP  RH WIND       PRES   REMARKS
MILWAUKEE      CLEAR     47  34  60 N9        30.06R
MADISON        CLEAR     52  41  66 NE9       30.06R
GREEN BAY      CLEAR     42  34  73 NE3       30.08R
EAU CLAIRE     CLEAR     46  38  73 CALM      30.07R
BLACK RVR FLS  FAIR      38  36  94 CALM      30.07R
MEDFORD        CLEAR     39  35  86 CALM      30.08R
WAUSAU         CLEAR     43  34  70 CALM      30.07R
WIS RAPIDS     CLEAR     46  35  65 CALM      30.08R
MARSHFIELD     CLEAR     47  33  58 E3        30.07R
RICE LAKE      CLEAR     44  40  85 CALM      30.10R
$$

...NORTHEAST IOWA...


CITY           SKY/WX    TMP DP  RH WIND       PRES   REMARKS
DECORAH        CLEAR     54  37  54 CALM      30.08R
MASON CITY     CLEAR     47  37  68 NW8       30.12S
CHARLES CITY   CLEAR     50  37  62 NW5       30.11R
OELWEIN        CLEAR     52  37  58 NW6       30.09S
$$

...ELSEWHERE IN IOWA...


CITY           SKY/WX    TMP DP  RH WIND       PRES   REMARKS
DES MOINES     CLEAR     56  42  59 W5        30.14R
IOWA CITY      CLEAR     53  38  56 CALM      30.10R
FORT DODGE     CLEAR     45  39  81 CALM      30.14R
$$

...NORTHERN ILLINOIS...


CITY           SKY/WX    TMP DP  RH WIND       PRES   REMARKS
CHICAGO-OHARE  PTCLDY    59  40  49 SW12      30.01F
CHICAGO-MIDWAY PTCLDY    60  41  49 W10       30.03S
MOLINE         CLEAR     54  44  69 W3        30.06R
ROCKFORD       CLEAR     56  41  57 SW5       30.04S
PEORIA         CLEAR     57  46  66 SW9       30.08F
$$

NOTE: "FAIR" INDICATES FEW OR NO CLOUDS BELOW 12,000 FEET WITH NO
SIGNIFICANT WEATHER AND/OR OBSTRUCTIONS TO VISIBILITY. WIND
SPEEDS ARE IN MILES-PER-HOUR.



USA.gov is the U.S. government's official web portal to all federal, state and local government web resources and services.